Location: Eindhoven
(51.4416°N, 5.4697°E)
Time: 12:29:11
(UTC+01:00)

Tiros 1 - Pass Details

Date: 17 November 2019
Orbit: 630 x 664 km, 48.4° (Epoch: 10 December)

Event Time Altitude Azimuth Distance (km) Brightness Sun altitude
Rises 18:49:21 0° 268° (W) 2,922 12.2 -18.8°
Reaches altitude 10° 18:51:41 10° 265° (W) 2,016 10.9 -19.2°
Maximum altitude 18:56:14 58° 187° (S) 743 7.4 -19.9°
Enters shadow 18:57:44 39° 128° (SE) 967 7.7 -20.1°
